• In Italy
  • List of Countries
  • For 7 days
  • Water Temperature
  • Satellite Maps
  • Weather Map
  • Weather Widgets
  • user-avatar
    Login

    Hourly Weather Kayrakly

    Today, 20 August, Monday

    Time Temperature Precipitation Wind Pressure Humidity
    00:00 +9°C° 0 mm 2 mps 736 mmHg 88%
    01:00 +8°C° 0 mm 2 mps 736 mmHg 89%
    02:00 +8°C° 0 mm 2 mps 736 mmHg 89%
    03:00 +8°C° 0 mm 2 mps 736 mmHg 90%
    04:00 +9°C° 0 mm 1 mps 736 mmHg 91%
    05:00 +8°C° 0 mm 2 mps 736 mmHg 89%
    06:00 +9°C° 0 mm 2 mps 736 mmHg 87%
    07:00 +10°C° 0 mm 2 mps 736 mmHg 85%
    08:00 +12°C° 0 mm 2 mps 736 mmHg 79%
    09:00 +14°C° 0 mm 2 mps 736 mmHg 73%
    10:00 +16°C° 0 mm 2 mps 736 mmHg 66%
    11:00 +17°C° 0 mm 2 mps 736 mmHg 62%
    12:00 +17°C° 0 mm 2 mps 736 mmHg 59%
    13:00 +18°C° 0 mm 2 mps 736 mmHg 55%
    14:00 +18°C° 0 mm 2 mps 736 mmHg 56%
    15:00 +18°C° 0 mm 2 mps 735 mmHg 56%
    16:00 +19°C° 0 mm 2 mps 735 mmHg 57%
    17:00 +18°C° 0 mm 2 mps 735 mmHg 61%
    18:00 +18°C° 0 mm 1 mps 735 mmHg 66%
    19:00 +16°C° 0 mm 1 mps 735 mmHg 70%
    20:00 +15°C° 0 mm 1 mps 735 mmHg 73%
    21:00 +14°C° 0 mm 1 mps 735 mmHg 76%
    22:00 +13°C° 0 mm 1 mps 735 mmHg 79%
    23:00 +12°C° 0 mm 1 mps 735 mmHg 80%

    Tomorrow, 21 August, Tuesday

    Time Temperature Precipitation Wind Pressure Humidity
    00:00 +12°C° 0 mm 2 mps 734 mmHg 81%
    01:00 +12°C° 0 mm 2 mps 734 mmHg 82%
    02:00 +12°C° 0 mm 2 mps 734 mmHg 82%
    03:00 +12°C° 0 mm 2 mps 734 mmHg 83%
    04:00 +11°C° 0 mm 3 mps 734 mmHg 83%
    05:00 +11°C° 0 mm 3 mps 734 mmHg 82%
    06:00 +12°C° 0 mm 3 mps 734 mmHg 81%
    07:00 +13°C° 0 mm 4 mps 734 mmHg 80%
    08:00 +14°C° 0.2 mm 4 mps 734 mmHg 80%
    09:00 +15°C° 0.2 mm 4 mps 734 mmHg 79%
    10:00 +15°C° 0.2 mm 4 mps 734 mmHg 79%
    11:00 +18°C° 0.1 mm 4 mps 734 mmHg 75%
    12:00 +21°C° 0.1 mm 5 mps 734 mmHg 70%
    13:00 +23°C° 0.1 mm 5 mps 734 mmHg 65%
    14:00 +23°C° 0.5 mm 5 mps 733 mmHg 66%
    15:00 +23°C° 0.5 mm 5 mps 733 mmHg 67%
    16:00 +23°C° 0.5 mm 5 mps 733 mmHg 67%
    17:00 +22°C° 0.2 mm 4 mps 733 mmHg 72%
    18:00 +21°C° 0.2 mm 3 mps 732 mmHg 76%
    19:00 +20°C° 0.2 mm 3 mps 732 mmHg 80%
    20:00 +19°C° 0 mm 3 mps 732 mmHg 82%
    21:00 +18°C° 0 mm 3 mps 732 mmHg 83%
    22:00 +17°C° 0 mm 3 mps 732 mmHg 85%
    23:00 +16°C° 0 mm 3 mps 732 mmHg 84%

    Day after tomorrow, 22 August, Wednesday

    Time Temperature Precipitation Wind Pressure Humidity
    00:00 +16°C° 0 mm 3 mps 732 mmHg 84%
    01:00 +16°C° 0 mm 3 mps 732 mmHg 83%
    02:00 +14°C° 0 mm 3 mps 731 mmHg 82%
    03:00 +14°C° 0 mm 3 mps 731 mmHg 82%
    04:00 +13°C° 0 mm 4 mps 731 mmHg 81%
    05:00 +14°C° 0 mm 4 mps 731 mmHg 79%
    06:00 +14°C° 0 mm 4 mps 731 mmHg 77%
    07:00 +15°C° 0 mm 4 mps 731 mmHg 75%
    08:00 +17°C° 0 mm 5 mps 731 mmHg 69%
    09:00 +20°C° 0 mm 6 mps 731 mmHg 62%
    10:00 +22°C° 0 mm 6 mps 731 mmHg 56%
    11:00 +23°C° 0 mm 7 mps 730 mmHg 51%
    12:00 +24°C° 0 mm 7 mps 730 mmHg 47%
    13:00 +26°C° 0 mm 7 mps 730 mmHg 43%
    14:00 +26°C° 0 mm 7 mps 730 mmHg 45%
    15:00 +26°C° 0 mm 6 mps 730 mmHg 47%
    16:00 +26°C° 0 mm 5 mps 729 mmHg 48%
    17:00 +23°C° 0 mm 5 mps 729 mmHg 56%
    18:00 +20°C° 0 mm 5 mps 729 mmHg 64%
    19:00 +17°C° 0 mm 5 mps 729 mmHg 72%
    20:00 +17°C° 0.1 mm 4 mps 729 mmHg 76%
    21:00 +17°C° 0.1 mm 4 mps 729 mmHg 80%
    22:00 +16°C° 0.1 mm 3 mps 729 mmHg 85%
    23:00 +16°C° 0.4 mm 3 mps 729 mmHg 88%

    23 August, Thursday

    Time Temperature Precipitation Wind Pressure Humidity
    00:00 +15°C° 0.4 mm 2 mps 729 mmHg 92%
    01:00 +15°C° 0.4 mm 2 mps 729 mmHg 96%
    02:00 +13°C° 0.4 mm 3 mps 729 mmHg 95%
    03:00 +12°C° 0.4 mm 3 mps 729 mmHg 95%
    04:00 +12°C° 0.4 mm 3 mps 729 mmHg 95%
    05:00 +12°C° 0 mm 4 mps 729 mmHg 94%
    06:00 +11°C° 0 mm 4 mps 730 mmHg 93%
    07:00 +10°C° 0 mm 5 mps 730 mmHg 92%
    08:00 +12°C° 0 mm 5 mps 731 mmHg 86%
    09:00 +13°C° 0 mm 6 mps 731 mmHg 81%
    10:00 +14°C° 0 mm 6 mps 731 mmHg 75%
    11:00 +15°C° 0.1 mm 6 mps 732 mmHg 71%
    12:00 +15°C° 0.1 mm 7 mps 732 mmHg 66%
    13:00 +16°C° 0.1 mm 7 mps 732 mmHg 62%
    14:00 +16°C° 0.1 mm 7 mps 733 mmHg 61%
    15:00 +16°C° 0.1 mm 7 mps 733 mmHg 61%
    16:00 +15°C° 0.1 mm 7 mps 733 mmHg 60%
    17:00 +14°C° 0 mm 6 mps 734 mmHg 64%
    18:00 +13°C° 0 mm 5 mps 734 mmHg 68%
    19:00 +12°C° 0 mm 4 mps 734 mmHg 73%
    20:00 +11°C° 0 mm 4 mps 735 mmHg 75%
    21:00 +10°C° 0 mm 4 mps 735 mmHg 78%
    22:00 +9°C° 0 mm 3 mps 735 mmHg 80%
    23:00 +9°C° 0 mm 3 mps 735 mmHg 82%

    24 August, Friday

    Time Temperature Precipitation Wind Pressure Humidity
    00:00 +8°C° 0 mm 3 mps 735 mmHg 83%
    01:00 +8°C° 0 mm 3 mps 735 mmHg 85%
    02:00 +8°C° 0 mm 3 mps 735 mmHg 85%
    03:00 +7°C° 0 mm 3 mps 735 mmHg 85%
    04:00 +6°C° 0 mm 4 mps 735 mmHg 85%
    05:00 +7°C° 0 mm 4 mps 735 mmHg 83%
    06:00 +8°C° 0 mm 4 mps 736 mmHg 80%
    07:00 +8°C° 0 mm 5 mps 736 mmHg 77%
    08:00 +10°C° 0 mm 5 mps 736 mmHg 71%
    09:00 +13°C° 0 mm 6 mps 736 mmHg 64%
    10:00 +15°C° 0 mm 7 mps 736 mmHg 57%
    11:00 +15°C° 0 mm 7 mps 736 mmHg 57%
    12:00 +15°C° 0 mm 7 mps 735 mmHg 58%
    13:00 +15°C° 0 mm 8 mps 735 mmHg 58%
    14:00 +15°C° 0 mm 7 mps 735 mmHg 64%
    15:00 +14°C° 0 mm 7 mps 735 mmHg 70%
    16:00 +13°C° 0 mm 6 mps 735 mmHg 76%
    17:00 +13°C° 0 mm 5 mps 735 mmHg 79%
    18:00 +12°C° 0 mm 5 mps 734 mmHg 82%
    19:00 +12°C° 0 mm 4 mps 734 mmHg 85%
    20:00 +11°C° 0 mm 4 mps 734 mmHg 88%
    21:00 +11°C° 0 mm 4 mps 734 mmHg 91%
    22:00 +10°C° 0 mm 4 mps 734 mmHg 94%
    23:00 +10°C° 0 mm 4 mps 735 mmHg 95%

    25 August, Saturday

    Time Temperature Precipitation Wind Pressure Humidity
    00:00 +10°C° 0 mm 4 mps 735 mmHg 95%
    01:00 +10°C° 0 mm 4 mps 735 mmHg 96%
    02:00 +8°C° 0 mm 4 mps 735 mmHg 96%
    03:00 +8°C° 0 mm 4 mps 735 mmHg 96%
    04:00 +8°C° 0 mm 4 mps 735 mmHg 96%
    05:00 +10°C° 0 mm 4 mps 735 mmHg 94%
    06:00 +10°C° 0 mm 4 mps 735 mmHg 92%
    07:00 +10°C° 0 mm 4 mps 735 mmHg 90%
    08:00 +12°C° 0 mm 5 mps 735 mmHg 82%
    09:00 +14°C° 0 mm 5 mps 736 mmHg 74%
    10:00 +15°C° 0 mm 5 mps 736 mmHg 66%
    11:00 +16°C° 0 mm 5 mps 736 mmHg 65%
    12:00 +17°C° 0 mm 5 mps 736 mmHg 63%
    13:00 +19°C° 0 mm 5 mps 736 mmHg 62%
    14:00 +19°C° 0 mm 5 mps 736 mmHg 63%
    15:00 +19°C° 0 mm 5 mps 736 mmHg 64%
    16:00 +20°C° 0 mm 5 mps 736 mmHg 65%
    17:00 +19°C° 0 mm 4 mps 735 mmHg 70%
    18:00 +17°C° 0 mm 4 mps 735 mmHg 75%
    19:00 +16°C° 0 mm 3 mps 735 mmHg 80%
    20:00 +14°C° 0 mm 3 mps 735 mmHg 83%
    21:00 +13°C° 0 mm 3 mps 735 mmHg 86%
    22:00 +12°C° 0 mm 3 mps 735 mmHg 90%
    23:00 +12°C° 0 mm 3 mps 735 mmHg 91%
    Show more